TimeEDT,TemperatureF,Dew PointF,Humidity,Sea Level PressureIn,VisibilityMPH,Wind Direction,Wind SpeedMPH,Gust SpeedMPH,PrecipitationIn,Events,Conditions,WindDirDegrees,DateUTC
12:54 AM,42.1,27.0,55,29.73,-9999.0,North,-9999.0,-,N/A,,Unknown,0,2013-05-13 04:54:00
1:54 AM,41.0,28.0,60,29.73,-9999.0,North,-9999.0,-,N/A,,Unknown,0,2013-05-13 05:54:00
2:54 AM,41.0,28.0,60,29.74,-9999.0,North,-9999.0,-,N/A,,Unknown,0,2013-05-13 06:54:00
3:54 AM,41.0,23.0,49,29.74,-9999.0,North,-9999.0,-,N/A,,Unknown,0,2013-05-13 07:54:00
4:54 AM,41.0,25.0,53,29.75,-9999.0,North,-9999.0,-,N/A,,Unknown,0,2013-05-13 08:54:00
5:54 AM,39.9,25.0,55,29.78,-9999.0,North,-9999.0,-,N/A,,Unknown,0,2013-05-13 09:54:00
6:54 AM,39.9,24.1,53,29.80,-9999.0,North,-9999.0,-,N/A,,Unknown,0,2013-05-13 10:54:00
7:54 AM,41.0,23.0,49,29.81,-9999.0,North,-9999.0,-,N/A,,Unknown,0,2013-05-13 11:54:00
8:54 AM,43.0,24.1,47,29.83,-9999.0,North,-9999.0,-,N/A,,Unknown,0,2013-05-13 12:54:00
9:54 AM,44.1,23.0,43,29.85,-9999.0,North,-9999.0,-,N/A,,Unknown,0,2013-05-13 13:54:00
10:54 AM,45.0,24.1,44,29.86,-9999.0,North,-9999.0,-,N/A,,Unknown,0,2013-05-13 14:54:00
11:54 AM,46.9,26.1,44,29.87,-9999.0,North,-9999.0,-,N/A,,Unknown,0,2013-05-13 15:54:00
12:54 PM,48.9,26.1,41,29.87,-9999.0,North,-9999.0,-,N/A,,Unknown,0,2013-05-13 16:54:00
1:54 PM,48.0,24.1,39,29.89,-9999.0,North,-9999.0,-,N/A,,Unknown,0,2013-05-13 17:54:00
2:54 PM,48.0,26.1,42,29.91,-9999.0,North,-9999.0,-,N/A,,Unknown,0,2013-05-13 18:54:00
4:54 PM,48.0,28.0,46,29.93,-9999.0,North,-9999.0,-,N/A,,Unknown,0,2013-05-13 20:54:00
5:54 PM,48.0,27.0,44,29.93,-9999.0,North,-9999.0,-,N/A,,Unknown,0,2013-05-13 21:54:00
6:54 PM,48.0,26.1,42,29.94,-9999.0,North,-9999.0,-,N/A,,Unknown,0,2013-05-13 22:54:00
8:54 PM,42.1,28.9,60,29.98,-9999.0,North,-9999.0,-,N/A,,Unknown,0,2013-05-14 00:54:00
9:54 PM,39.0,30.9,73,30.01,-9999.0,North,-9999.0,-,N/A,,Unknown,0,2013-05-14 01:54:00
10:54 PM,37.0,30.9,79,30.04,-9999.0,North,-9999.0,-,N/A,,Unknown,0,2013-05-14 02:54:00
11:54 PM,37.9,33.1,83,30.04,-9999.0,North,-9999.0,-,N/A,,Unknown,0,2013-05-14 03:54:00